Location: Unspecified
(0.0000°N, 0.0000°E)
Time: 02:32:14
(UTC+00:00)

deb Explorer IX - Pass Details

Date: 22 December 2018
Orbit: 538 x 1115 km, 38.8° (Epoch: 14 January)

Event Time Altitude Azimuth Distance (km) Brightness Sun altitude
Rises 22:33:28 0° 332° (NNW) 2,696 - -58.7°
Reaches altitude 10° 22:35:55 10° 345° (NNW) 1,843 - -59.1°
Maximum altitude 22:39:26 26° 43° (NE) 1,194 - -59.7°
Drops below altitude 10° 22:43:18 10° 99° (E) 2,041 - -60.2°
Sets 22:46:09 0° 111° (ESE) 3,056 - -60.7°
